"Pseudo-MPEC" for P10SBuT

Created 2019 Oct 21 2:07:33 UT using Find_Orb

Click here for an explanation of pseudo-MPECs

 
 Astrometry: 
     P10SBuT  C2019 10 07jH/kGugH6OTx83uhAstrometryE-VsxDOd9MEXmhI;w:cr(e.1s-F51
     P10SBuT  C2019 10 07I-\l,CHYAFb__5*:nw(=9WVx9Aaredacted;J:HNclickG*t.'vgF51
     P10SBuT  C2019 10 07ICPbhere\?mv3jY*)997for/ZR4uv^6^f2Li/VQluDBc5!mr:cf,F51
     P10SBuT  C2019 10 08sF^-explanationu_ILC_0/K6R[l*MhNI+=Kxj?bV%5VdvR#EX^hF51
     P10SBuT  C2019 10 08d/YjKFqmOAxlFQ\emlE(I/$!f#3fa!*JZGo`mfSBa,i-]%M*rr2AF51
     P10SBuT  C2019 10 08[jvGGcg.dr2ys'_fHlc/RRqi1Ds)p_$QOTRv=s^\EK[Rt+T@HdsTF51

Station data:
(F51) Pan-STARRS 1, Haleakala  (N20.707235 W156.255910)  US/Hawaii.
   Observers N. Primak, A. Schultz, S. Watters, J. Thiel, T. Goggia. Measurer
   PS1 Science Consortium. 1.8-m Ritchey-Chrétien + CCD.

Orbital elements:  P10SBuT
   Perihelion 2019 Jul 13.980162 +/- 6.49 TT = 23:31:26 (JD 2458678.480162)
Epoch 2019 Oct  8.0 TT = JDT 2458764.5   Earth MOID: 0.0868   AutoNEOCP
M  60.12510119 +/- 9                (J2000 ecliptic)
n   0.69896785 +/- 0.0593           Peri.  293.67412 +/- 1.1
a   1.25747081 +/- 0.0711           Node   359.51863 +/- 1.6
e   0.1943465 +/- 0.0846            Incl.   10.72998 +/- 1.6
P   1.41/515.04d           H 25.0   G  0.15   U 10.8  
q 1.01308573 +/- 0.0521    Q 1.50185589 +/- 0.193
From 6 observations 2019 Oct. 7-8 (25.7 hr); mean residual 0".08
Residuals in arcseconds: 
191007 F51  .07+  .03-    191007 F51  .05+  .02-    191008 F51  .18-  .07+    
191007 F51  .12-  .04+    191008 F51  .09+  .02-    191008 F51  .09+  .06-    

Ephemerides (geocentric):
Date (UTC) HH   RA              Dec         delta   r     elong  mag " sig PA
---- -- -- --  -------------   -----------  ------ ------ -----  --- ---- ---
2019 10 21 02  00 02 56.245   +25 52 40.37  .24312 1.2161 152.2 23.5  809 111
2019 10 21 03  00 02 52.849   +25 52 55.16  .24333 1.2162 152.2 23.5  813 111
2019 10 21 04  00 02 49.463   +25 53 09.88  .24354 1.2163 152.1 23.5  816 111
2019 10 21 05  00 02 46.089   +25 53 24.52  .24375 1.2164 152.1 23.5  820 111
2019 10 21 06  00 02 42.727   +25 53 39.08  .24396 1.2166 152.1 23.5  823 111
2019 10 21 07  00 02 39.376   +25 53 53.57  .24417 1.2167 152.0 23.5  827 111
2019 10 21 08  00 02 36.036   +25 54 07.98  .24438 1.2168 152.0 23.5  830 111
2019 10 21 09  00 02 32.708   +25 54 22.32  .24460 1.2169 152.0 23.5  834 111
2019 10 21 10  00 02 29.392   +25 54 36.58  .24481 1.2171 151.9 23.5  837 111
2019 10 21 11  00 02 26.086   +25 54 50.76  .24502 1.2172 151.9 23.5  841 111
2019 10 21 12  00 02 22.792   +25 55 04.87  .24523 1.2173 151.9 23.5  844 111
2019 10 21 13  00 02 19.510   +25 55 18.91  .24544 1.2174 151.8 23.5  848 111
2019 10 21 14  00 02 16.239   +25 55 32.87  .24566 1.2176 151.8 23.5  851 111
2019 10 21 15  00 02 12.979   +25 55 46.76  .24587 1.2177 151.8 23.5  855 111
2019 10 21 16  00 02 09.730   +25 56 00.57  .24608 1.2178 151.7 23.5  858 111
2019 10 21 17  00 02 06.493   +25 56 14.31  .24629 1.2180 151.7 23.5  862 111
2019 10 21 18  00 02 03.267   +25 56 27.98  .24651 1.2181 151.7 23.5  865 111
2019 10 21 19  00 02 00.053   +25 56 41.57  .24672 1.2182 151.6 23.5  869 111
2019 10 21 20  00 01 56.850   +25 56 55.09  .24693 1.2183 151.6 23.5  872 111
2019 10 21 21  00 01 53.658   +25 57 08.54  .24715 1.2185 151.6 23.5  876 111
2019 10 21 22  00 01 50.478   +25 57 21.92  .24736 1.2186 151.5 23.5  879 111
2019 10 21 23  00 01 47.309   +25 57 35.22  .24757 1.2187 151.5 23.5  883 111
2019 10 22 00  00 01 44.151   +25 57 48.45  .24779 1.2188 151.4 23.5  886 111
2019 10 22 01  00 01 41.004   +25 58 01.61  .24800 1.2190 151.4 23.5  890 111
2019 10 22 02  00 01 37.869   +25 58 14.70  .24821 1.2191 151.4 23.5  893 111
2019 10 22 03  00 01 34.745   +25 58 27.72  .24843 1.2192 151.3 23.5  897 111
2019 10 22 04  00 01 31.632   +25 58 40.66  .24864 1.2193 151.3 23.5  900 111
2019 10 22 05  00 01 28.531   +25 58 53.54  .24886 1.2195 151.3 23.5  904 111
2019 10 22 06  00 01 25.440   +25 59 06.34  .24907 1.2196 151.2 23.5  907 111
2019 10 22 07  00 01 22.361   +25 59 19.08  .24929 1.2197 151.2 23.5  910 111
2019 10 22 08  00 01 19.293   +25 59 31.74  .24950 1.2199 151.2 23.5  914 111
2019 10 22 09  00 01 16.237   +25 59 44.34  .24972 1.2200 151.1 23.5  917 111
2019 10 22 10  00 01 13.191   +25 59 56.86  .24993 1.2201 151.1 23.6  921 111
2019 10 22 11  00 01 10.157   +26 00 09.32  .25015 1.2202 151.1 23.6  924 111
2019 10 22 12  00 01 07.134   +26 00 21.71  .25036 1.2204 151.0 23.6  928 111
2019 10 22 13  00 01 04.122   +26 00 34.02  .25058 1.2205 151.0 23.6  931 111
2019 10 22 14  00 01 01.122   +26 00 46.27  .25079 1.2206 151.0 23.6  935 111
2019 10 22 15  00 00 58.132   +26 00 58.45  .25101 1.2207 150.9 23.6  938 111
2019 10 22 16  00 00 55.154   +26 01 10.57  .25123 1.2209 150.9 23.6  942 111
2019 10 22 17  00 00 52.187   +26 01 22.61  .25144 1.2210 150.9 23.6  945 111
2019 10 22 18  00 00 49.231   +26 01 34.59  .25166 1.2211 150.8 23.6  948 111
2019 10 22 19  00 00 46.286   +26 01 46.50  .25188 1.2212 150.8 23.6  952 110
2019 10 22 20  00 00 43.352   +26 01 58.34  .25209 1.2214 150.8 23.6  955 110
2019 10 22 21  00 00 40.429   +26 02 10.12  .25231 1.2215 150.7 23.6  959 110
2019 10 22 22  00 00 37.518   +26 02 21.83  .25253 1.2216 150.7 23.6  962 110
2019 10 22 23  00 00 34.617   +26 02 33.47  .25274 1.2217 150.6 23.6  965 110
2019 10 23 00  00 00 31.728   +26 02 45.05  .25296 1.2219 150.6 23.6  969 110
2019 10 23 01  00 00 28.850   +26 02 56.56  .25318 1.2220 150.6 23.6  972 110